Regional Weather Roundup
Issued by NWS

Home | Current Version | Previous Version | Graphics & Text | Print | Product List | Glossary On
Versions: 1 2 3 4 5 6 7 8 9 10 11 12 13 14 15 16 17 18 19 20 21 22 23 24 25 26 27 28 29 30 31 32 33 34 35 36 37 38 39 40 41 42 43 44 45 46 47 48 49 50
661
ASUS43 KFSD 200410
RWRSD

WEATHER ROUNDUP FOR SOUTH DAKOTA
NATIONAL WEATHER SERVICE SIOUX FALLS SD
1100 PM CDT SAT AUG 19 2017

NOTE: "FAIR" INDICATES FEW OR NO CLOUDS BELOW 12,000 FEET WITH NO
SIGNIFICANT WEATHER AND/OR OBSTRUCTIONS TO VISIBILITY.


SDZ001>005-009-010-012>017-200500-
NORTHWEST AND NORTH CENTRAL SOUTH DAKOTA

CITY           SKY/WX    TMP DP  RH WIND       PRES   REMARKS
BUFFALO          N/A     69  44  40 SW5       29.92R
FAITH            N/A     67  47  48 N14       29.89R
MOBRIDGE       CLEAR     70  61  73 N9        29.82R
$$

SDZ012>016-024>037-041>051-057-063-072>074-200500-
SOUTHWEST AND SOUTH CENTRAL SOUTH DAKOTA

CITY           SKY/WX    TMP DP  RH WIND       PRES   REMARKS
RAPID CTY ARPT CLOUDY    67  43  41 NW12      29.93R
PIERRE         CLEAR     73  66  78 E8        29.79R
CUSTER         CLEAR     66  35  31 NE14      30.08R
ELLSWORTH AFB  PTCLDY    74  40  29 N9        29.93R
PHILIP         PTCLDY    79  47  32 N16G28    29.83R
PINE RIDGE     CLEAR     77  45  32 N13       29.90R
SPEARFISH      FAIR      68  41  37 SE5       30.00R
WINNER         FAIR      75  70  84 SE9       29.83R
$$

SDZ004>011-016>023-039-040-200500-
NORTHEAST SOUTH DAKOTA

CITY           SKY/WX    TMP DP  RH WIND       PRES   REMARKS
ABERDEEN       CLEAR     68  64  87 S8        29.81R
WATERTOWN      CLEAR     69  65  86 S8        29.84R
BROOKINGS      CLEAR     69  64  84 SE12      29.86F
SISSETON         N/A     66  64  93 S6        29.81S
$$

SDZ017-020-022-023-036>040-048>070-200500-
SOUTHEAST SOUTH DAKOTA

CITY           SKY/WX    TMP DP  RH WIND       PRES   REMARKS
SIOUX FALLS    CLOUDY    74  66  76 S14       29.87R
HURON          CLEAR     72  64  76 SE10      29.79F
CHAMBERLAIN    CLEAR     72  71  97 E7        29.81R
MITCHELL       CLOUDY    69  65  86 SE6       29.82R
YANKTON        CLOUDY    74  65  73 E13       29.83S
$$

ABBREVIATIONS USED IN REMARKS
   TC - TEMPERATURE IN CELSIUS
  WCI - WIND CHILL INDEX
   HX - HEAT INDEX
  VSB - VISIBILITY





USA.gov is the U.S. government's official web portal to all federal, state and local government web resources and services.